Location: St. Louis
(38.6270°N, 90.1994°W)
Time: 07:24:50
(UTC-06:00)

A-11 Canister half - Pass Details

Date: 14 December 2021
Orbit: 1524 x 1684 km, 47.3° (Epoch: 17 January)

Event Time Altitude Azimuth Distance (km) Brightness Sun altitude
Rises 23:01:59 0° 247° (WSW) 4,884 - -70.8°
Reaches altitude 10° 23:05:08 10° 249° (WSW) 3,913 - -71.2°
Maximum altitude 23:15:14 74° 334° (NNW) 1,738 - -72.4°
Drops below altitude 10° 23:25:26 10° 60° (ENE) 3,943 - -73.3°
Sets 23:28:37 0° 63° (ENE) 4,924 - -73.6°
